Location: Asheville, NC
(35.6000°N, 82.5500°W)
Time: 14:58:25
(UTC-05:00)

Iridium 28 - Pass Details

Date: 04 January 2018
Orbit: 772 x 774 km, 86.4° (Epoch: 17 January)

Event Time Altitude Azimuth Distance (km) Brightness Sun altitude
Rises 07:00:49 0° 179° (S) 3,231 9.1 -8.1°
Reaches altitude 10° 07:03:08 10° 178° (S) 2,308 8.3 -7.7°
Maximum altitude 07:08:18 84° 92° (E) 780 5.6 -6.7°
Drops below altitude 10° 07:13:31 10° 3° (N) 2,321 7.8 -5.7°
Sets 07:15:52 0° 3° (N) 3,251 8.5 -5.3°
